FW6979 Weather Reports


time (UTC)temp
C
wind
direction
speed
KPH
gust
KPH
rain 1hr
cm
rain 24hr
cm
rain mn
cm
humidity
%
barometer
mb
20260504044540 8 0 0.0 3.2 0.00 0.00 0.00 76 1017.8
20260504043039 8 0 0.0 0.0 0.00 0.00 0.00 76 1017.5
20260504041535 9 0 0.0 0.0 0.00 0.00 0.00 74 1017.7
20260504040035 9 360 0.0 1.6 0.00 0.00 0.00 74 1017.8
20260504034535 10 0 0.0 3.2 0.00 0.00 0.00 75 1017.7
20260504033038 10 0 0.0 0.0 0.00 0.00 0.00 72 1017.8
20260504031539 10 0 0.0 0.0 0.00 0.00 0.00 72 1017.7
20260504030042 11 360 0.0 3.2 0.00 0.00 0.00 68 1017.7
20260504024536 11 0 0.0 1.6 0.00 0.00 0.00 68 1017.7
20260504023032 11 0 0.0 1.6 0.00 0.00 0.00 68 1017.5
20260504021539 12 0 0.0 0.0 0.00 0.00 0.00 67 1017.3
20260504020039 12 0 0.0 1.6 0.00 0.00 0.00 66 1017.1
20260504014551 12 0 0.0 1.6 0.00 0.00 0.00 62 1016.9
20260504013037 13 0 0.0 3.2 0.00 0.00 0.00 65 1016.8
20260504011536 13 0 0.0 1.6 0.00 0.00 0.00 64 1016.6
20260504010037 13 0 0.0 0.0 0.00 0.00 0.00 65 1016.6
20260504004534 14 0 0.0 0.0 0.00 0.00 0.00 62 1016.7
20260504003038 15 0 0.0 0.0 0.00 0.00 0.00 58 1016.5
20260504001537 16 0 0.0 0.0 0.00 0.00 0.00 55 1016.3
20260504000037 17 0 0.0 1.6 0.00 0.00 0.00 54 1016.1
20260503234545 18 0 0.0 1.6 0.00 0.00 0.00 49 1016.0
20260503233037 18 0 0.0 3.2 0.00 0.00 0.00 49 1016.1
20260503231535 19 0 0.0 3.2 0.00 0.00 0.00 44 1016.0
20260503230041 20 0 0.0 3.2 0.00 0.00 0.00 42 1016.2
20260503224536 21 277 1.6 11.3 0.00 0.00 0.00 37 1016.3
20260503223038 21 0 0.0 6.4 0.00 0.00 0.00 38 1016.3
20260503221532 21 0 0.0 4.8 0.00 0.00 0.00 34 1016.4
20260503220044 21 272 1.6 9.7 0.00 0.00 0.00 37 1016.5
20260503214537 22 272 1.6 11.3 0.00 0.00 0.00 32 1016.4
20260503213037 22 0 0.0 6.4 0.00 0.00 0.00 31 1016.5
20260503211535 22 234 1.6 6.4 0.00 0.00 0.00 34 1016.7
20260503210037 22 317 1.6 11.3 0.00 0.00 0.00 31 1016.8
20260503204539 22 0 1.6 6.4 0.00 0.00 0.00 34 1017.0
20260503203037 21 174 1.6 12.9 0.00 0.00 0.00 34 1017.3
20260503201537 22 304 3.2 12.9 0.00 0.00 0.00 30 1017.5
20260503200036 21 246 0.0 14.5 0.00 0.00 0.00 35 1017.8
20260503194542 21 60 0.0 6.4 0.00 0.00 0.00 31 1018.0
20260503193036 21 275 1.6 12.9 0.00 0.00 0.00 33 1018.3
20260503191537 21 341 3.2 11.3 0.00 0.00 0.00 31 1018.4
20260503190037 21 0 3.2 9.7 0.00 0.00 0.00 34 1018.8
20260503184542 21 284 0.0 11.3 0.00 0.00 0.00 39 1018.9
20260503183053 20 0 0.0 6.4 0.00 0.00 0.00 42 1019.0
20260503181538 20 42 1.6 6.4 0.00 0.00 0.00 41 1019.1
20260503180037 20 0 1.6 9.7 0.00 0.00 0.00 42 1019.3
20260503174536 18 289 3.2 11.3 0.00 0.00 0.00 40 1019.5
20260503173034 18 221 1.6 6.4 0.00 0.00 0.00 41 1019.6
20260503171535 18 245 1.6 12.9 0.00 0.00 0.00 45 1019.8
20260503081540 5 0 0.0 0.0 0.00 0.00 0.00 84 1017.7
20260503071537 5 0 0.0 0.0 0.00 0.00 0.00 82 1017.0